カタログに戻る

COSMOS 1275 DEB

運用中PO
NORAD 14405·DEBRIS·🇷🇺 Russia

打ち上げ Jun 4, 1981 から Plesetsk Cosmodrome

Loading…

次のパス (今後24時間)

TLE

最新Source: Space-Track

元期: Sep 14, 2026, 15:46 UTC

1 14405U 81053JA  26257.65705942  .00000528  00000-0  45730-3 0  9998
2 14405  83.2655  43.3378 0068053  51.6541 321.9165 13.83410862257521

AllMySatでCOSMOS 1275 DEBをリアルタイム追跡

Download on the App Store